JBU1373 KILM-KISP

Flight info

Callsign JBU1373
Flight time 1h 6m
Altitude 35000
Route WALLO YEASO Q97 KALDA SARDI1
Aircraft A320/M-SDE3FGHIRWY/LB1

Departure

Time 2026-05-07 13:41
Airport Wilmington International Airport (KILM)

Arrival

Time 2026-05-07 14:47
Airport Long Island MacArthur Airport (KISP)
Time Latitude Longitude Altitude Speed Heading
2026-05-07 13:30 34.26749 -77.90839 35 ft 3 kts 227°
2026-05-07 13:30 34.26757 -77.90820 35 ft 3 kts 268°
2026-05-07 13:31 34.26753 -77.90798 35 ft 3 kts 308°
2026-05-07 13:31 34.26741 -77.90782 35 ft 3 kts 331°
2026-05-07 13:31 34.26740 -77.90781 35 ft 0 kts 332°
2026-05-07 13:35 34.26741 -77.90781 35 ft 2 kts 332°
2026-05-07 13:35 34.26757 -77.90785 34 ft 1 kts 359°
2026-05-07 13:35 34.26777 -77.90781 35 ft 7 kts 13°
2026-05-07 13:35 34.26800 -77.90749 35 ft 4 kts 81°
2026-05-07 13:36 34.26801 -77.90706 35 ft 9 kts 89°
2026-05-07 13:36 34.26802 -77.90601 35 ft 13 kts 88°
2026-05-07 13:36 34.26813 -77.90496 35 ft 12 kts 69°
2026-05-07 13:36 34.26858 -77.90419 34 ft 11 kts 50°
2026-05-07 13:37 34.26902 -77.90352 32 ft 9 kts 53°
2026-05-07 13:37 34.26938 -77.90296 34 ft 7 kts 51°
2026-05-07 13:37 34.26978 -77.90237 34 ft 15 kts 53°
2026-05-07 13:37 34.27063 -77.90107 33 ft 22 kts 50°
2026-05-07 13:38 34.27178 -77.89940 33 ft 28 kts 50°
2026-05-07 13:38 34.27304 -77.89767 34 ft 27 kts 49°
2026-05-07 13:38 34.27453 -77.89655 33 ft 25 kts 32°
2026-05-07 13:38 34.27567 -77.89511 32 ft 23 kts 48°
2026-05-07 13:39 34.27670 -77.89370 32 ft 22 kts 48°
2026-05-07 13:39 34.27743 -77.89268 32 ft 9 kts 52°
2026-05-07 13:39 34.27756 -77.89203 32 ft 7 kts 109°
2026-05-07 13:39 34.27719 -77.89158 32 ft 10 kts 137°
2026-05-07 13:40 34.27669 -77.89105 31 ft 9 kts 142°
2026-05-07 13:40 34.27574 -77.89159 31 ft 33 kts 226°
2026-05-07 13:40 34.27271 -77.89570 33 ft 97 kts 228°
2026-05-07 13:40 34.26690 -77.90352 89 ft 144 kts 225°
2026-05-07 13:41 34.26017 -77.91238 668 ft 142 kts 226°
2026-05-07 13:41 34.25349 -77.92078 1380 ft 136 kts 231°
2026-05-07 13:41 34.25082 -77.93131 2072 ft 140 kts 271°
2026-05-07 13:41 34.25503 -77.94312 2700 ft 167 kts 294°
2026-05-07 13:42 34.26512 -77.95225 3226 ft 208 kts 329°
2026-05-07 13:42 34.28081 -77.95431 3730 ft 243 kts 353°
2026-05-07 13:42 34.29825 -77.95470 4264 ft 258 kts 347°
2026-05-07 13:42 34.31693 -77.95523 4865 ft 276 kts 351°
2026-05-07 13:43 34.33648 -77.95533 5536 ft 286 kts 351°
2026-05-07 13:43 34.35665 -77.95531 6276 ft 292 kts 351°
2026-05-07 13:43 34.37724 -77.95533 6999 ft 298 kts 352°
2026-05-07 13:43 34.39824 -77.95544 7729 ft 305 kts 352°
2026-05-07 13:44 34.41969 -77.95565 8476 ft 312 kts 351°
2026-05-07 13:44 34.44131 -77.95593 9224 ft 318 kts 351°
2026-05-07 13:44 34.46380 -77.95629 9884 ft 329 kts 352°
2026-05-07 13:44 34.48711 -77.95668 10480 ft 339 kts 352°
2026-05-07 13:45 34.51102 -77.95708 11061 ft 348 kts 353°
2026-05-07 13:45 34.53550 -77.95747 11679 ft 356 kts 353°
2026-05-07 13:45 34.56059 -77.95784 12300 ft 364 kts 354°
2026-05-07 13:45 34.58617 -77.95821 12940 ft 370 kts 354°
2026-05-07 13:46 34.61218 -77.95857 13580 ft 377 kts 354°
2026-05-07 13:46 34.63859 -77.95895 14164 ft 382 kts 354°
2026-05-07 13:46 34.66502 -77.95934 14642 ft 390 kts 354°
2026-05-07 13:46 34.69286 -77.95976 15128 ft 397 kts 353°
2026-05-07 13:47 34.72069 -77.96020 15612 ft 403 kts 353°
2026-05-07 13:47 34.74853 -77.96063 16098 ft 408 kts 353°
2026-05-07 13:47 34.77722 -77.96108 16603 ft 413 kts 353°
2026-05-07 13:47 34.80605 -77.96151 17113 ft 416 kts 353°
2026-05-07 13:48 34.83517 -77.96190 17623 ft 419 kts 353°
2026-05-07 13:48 34.86454 -77.95953 18137 ft 428 kts
2026-05-07 13:48 34.89389 -77.95155 18593 ft 437 kts 10°
2026-05-07 13:48 34.92287 -77.93985 19051 ft 441 kts 13°
2026-05-07 13:49 34.95163 -77.92638 19509 ft 444 kts 15°
2026-05-07 13:49 34.98017 -77.91196 19980 ft 446 kts 16°
2026-05-07 13:49 35.00886 -77.89706 20419 ft 448 kts 17°
2026-05-07 13:49 35.03767 -77.88203 20857 ft 451 kts 17°
2026-05-07 13:50 35.06622 -77.86723 21294 ft 453 kts 16°
2026-05-07 13:50 35.09538 -77.85223 21753 ft 455 kts 16°
2026-05-07 13:50 35.12469 -77.83727 22219 ft 457 kts 15°
2026-05-07 13:50 35.15416 -77.82229 22682 ft 460 kts 15°
2026-05-07 13:51 35.18381 -77.80725 23176 ft 462 kts 15°
2026-05-07 13:51 35.21355 -77.79217 23627 ft 464 kts 15°
2026-05-07 13:51 35.24340 -77.77702 24024 ft 466 kts 15°
2026-05-07 13:51 35.27341 -77.76178 24421 ft 467 kts 15°
2026-05-07 13:52 35.30349 -77.74648 24838 ft 468 kts 15°
2026-05-07 13:52 35.33359 -77.73115 25251 ft 469 kts 15°
2026-05-07 13:52 35.36384 -77.71573 25672 ft 470 kts 15°
2026-05-07 13:52 35.39404 -77.70032 26099 ft 470 kts 15°
2026-05-07 13:53 35.42431 -77.68486 26538 ft 471 kts 15°
2026-05-07 13:53 35.45441 -77.66947 26976 ft 470 kts 15°
2026-05-07 13:53 35.48474 -77.65395 27426 ft 470 kts 15°
2026-05-07 13:53 35.51487 -77.63853 27879 ft 469 kts 15°
2026-05-07 13:54 35.54449 -77.62124 28341 ft 475 kts 22°
2026-05-07 13:54 35.57220 -77.59942 28783 ft 480 kts 28°
2026-05-07 13:54 35.59935 -77.57534 29189 ft 482 kts 30°
2026-05-07 13:54 35.62608 -77.55041 29584 ft 483 kts 31°
2026-05-07 13:55 35.65257 -77.52500 29981 ft 484 kts 31°
2026-05-07 13:55 35.67905 -77.49932 30327 ft 484 kts 31°
2026-05-07 13:55 35.70557 -77.47354 30678 ft 484 kts 30°
2026-05-07 13:55 35.73201 -77.44787 31034 ft 484 kts 30°
2026-05-07 13:56 35.75850 -77.42221 31399 ft 484 kts 30°
2026-05-07 13:56 35.78488 -77.39673 31754 ft 483 kts 29°
2026-05-07 13:56 35.81152 -77.37102 32140 ft 482 kts 29°
2026-05-07 13:56 35.83789 -77.34558 32508 ft 481 kts 29°
2026-05-07 13:57 35.86389 -77.32048 32876 ft 479 kts 28°
2026-05-07 13:57 35.89006 -77.29520 33226 ft 478 kts 28°
2026-05-07 13:57 35.91624 -77.26992 33488 ft 479 kts 28°
2026-05-07 13:57 35.94283 -77.24502 33753 ft 477 kts 26°
2026-05-07 13:58 35.96966 -77.22124 34006 ft 476 kts 24°
2026-05-07 13:58 35.99693 -77.19776 34241 ft 475 kts 24°
2026-05-07 13:58 36.02417 -77.17454 34472 ft 475 kts 23°
2026-05-07 13:58 36.05140 -77.15131 34706 ft 475 kts 23°
2026-05-07 13:59 36.07857 -77.12803 34927 ft 476 kts 23°
2026-05-07 13:59 36.10581 -77.10455 35152 ft 476 kts 23°
2026-05-07 13:59 36.13242 -77.08149 35393 ft 475 kts 23°
2026-05-07 13:59 36.16001 -77.05752 35642 ft 475 kts 23°
2026-05-07 14:00 36.18697 -77.03403 35886 ft 474 kts 23°
2026-05-07 14:00 36.21359 -77.01082 36107 ft 473 kts 22°
2026-05-07 14:00 36.24055 -76.98730 36279 ft 474 kts 22°
2026-05-07 14:00 36.26756 -76.96375 36450 ft 474 kts 22°
2026-05-07 14:01 36.29454 -76.94019 36640 ft 474 kts 22°
2026-05-07 14:01 36.32158 -76.91656 36809 ft 475 kts 22°
2026-05-07 14:01 36.34861 -76.89292 36904 ft 477 kts 22°
2026-05-07 14:02 36.40321 -76.84563 36913 ft 486 kts 22°
2026-05-07 14:02 36.45989 -76.79713 36922 ft 496 kts 22°
2026-05-07 14:03 36.51698 -76.74820 36929 ft 506 kts 23°
2026-05-07 14:03 36.57557 -76.69778 36940 ft 517 kts 24°
2026-05-07 14:04 36.63507 -76.64637 36937 ft 523 kts 24°
2026-05-07 14:04 36.69470 -76.59462 36935 ft 522 kts 24°
2026-05-07 14:05 36.75439 -76.54280 36936 ft 523 kts 24°
2026-05-07 14:05 36.81417 -76.49089 36944 ft 524 kts 23°
2026-05-07 14:06 36.87364 -76.43916 36946 ft 524 kts 23°
2026-05-07 14:06 36.93352 -76.38696 36935 ft 525 kts 23°
2026-05-07 14:07 36.99351 -76.33457 36936 ft 525 kts 23°
2026-05-07 14:07 37.05331 -76.28223 36948 ft 524 kts 23°
2026-05-07 14:08 37.11300 -76.22988 36944 ft 523 kts 23°
2026-05-07 14:08 37.17227 -76.17782 36942 ft 523 kts 23°
2026-05-07 14:09 37.23187 -76.12537 36938 ft 524 kts 23°
2026-05-07 14:09 37.29162 -76.07268 36933 ft 524 kts 23°
2026-05-07 14:10 37.35122 -76.02002 36929 ft 524 kts 23°
2026-05-07 14:10 37.41111 -75.96701 36930 ft 526 kts 23°
2026-05-07 14:11 37.47056 -75.91428 36934 ft 527 kts 24°
2026-05-07 14:11 37.53061 -75.86099 36940 ft 527 kts 22°
2026-05-07 14:12 37.59219 -75.81214 36945 ft 520 kts 18°
2026-05-07 14:12 37.65477 -75.76624 36949 ft 520 kts 17°
2026-05-07 14:13 37.71714 -75.72039 36950 ft 522 kts 18°
2026-05-07 14:13 37.77973 -75.67365 36950 ft 523 kts 18°
2026-05-07 14:14 37.84245 -75.62623 36960 ft 526 kts 19°
2026-05-07 14:14 37.89368 -75.58369 36965 ft 532 kts 22°
2026-05-07 14:15 37.96460 -75.52101 36971 ft 534 kts 23°
2026-05-07 14:15 38.02557 -75.46701 36963 ft 535 kts 22°
2026-05-07 14:16 38.07657 -75.42292 36959 ft 532 kts 21°
2026-05-07 14:16 38.13877 -75.37206 36959 ft 530 kts 20°
2026-05-07 14:17 38.20105 -75.32181 36963 ft 530 kts 20°
2026-05-07 14:17 38.26451 -75.27637 36678 ft 510 kts
2026-05-07 14:17 38.29714 -75.25894 36429 ft 508 kts
2026-05-07 14:18 38.32996 -75.24244 36192 ft 507 kts
2026-05-07 14:18 38.36303 -75.22641 35958 ft 508 kts
2026-05-07 14:18 38.39611 -75.21062 35719 ft 508 kts
2026-05-07 14:18 38.42933 -75.19479 35478 ft 510 kts
2026-05-07 14:19 38.46256 -75.17890 35247 ft 511 kts
2026-05-07 14:19 38.49589 -75.16287 35013 ft 513 kts
2026-05-07 14:19 38.52925 -75.14674 34776 ft 514 kts
2026-05-07 14:19 38.56279 -75.13047 34551 ft 515 kts
2026-05-07 14:20 38.59638 -75.11412 34339 ft 516 kts
2026-05-07 14:20 38.62976 -75.09598 34103 ft 530 kts 15°
2026-05-07 14:20 38.66164 -75.07069 33772 ft 549 kts 27°
2026-05-07 14:20 38.69136 -75.04039 33395 ft 555 kts 31°
2026-05-07 14:21 38.72077 -75.00804 33023 ft 560 kts 33°
2026-05-07 14:21 38.74987 -74.97458 32618 ft 562 kts 34°
2026-05-07 14:21 38.77878 -74.94069 32129 ft 564 kts 35°
2026-05-07 14:21 38.80811 -74.90750 31648 ft 562 kts 33°
2026-05-07 14:22 38.83813 -74.87532 31171 ft 562 kts 32°
2026-05-07 14:22 38.86856 -74.84368 30695 ft 563 kts 32°
2026-05-07 14:22 38.89918 -74.81225 30262 ft 565 kts 32°
2026-05-07 14:22 38.93004 -74.78059 29815 ft 566 kts 32°
2026-05-07 14:23 38.96077 -74.74893 29325 ft 564 kts 32°
2026-05-07 14:23 38.99121 -74.71729 28845 ft 561 kts 33°
2026-05-07 14:23 39.02141 -74.68566 28367 ft 557 kts 33°
2026-05-07 14:23 39.05134 -74.65417 27899 ft 554 kts 33°
2026-05-07 14:24 39.08110 -74.62280 27439 ft 550 kts 33°
2026-05-07 14:24 39.11053 -74.59174 26986 ft 546 kts 33°
2026-05-07 14:24 39.13950 -74.56114 26547 ft 543 kts 33°
2026-05-07 14:24 39.16842 -74.53015 26109 ft 540 kts 34°
2026-05-07 14:25 39.19731 -74.49882 25697 ft 549 kts 34°
2026-05-07 14:25 39.22720 -74.46630 25272 ft 559 kts 34°
2026-05-07 14:25 39.25648 -74.43427 24863 ft 557 kts 35°
2026-05-07 14:25 39.28596 -74.40189 24453 ft 554 kts 35°
2026-05-07 14:26 39.31515 -74.36970 24053 ft 550 kts 35°
2026-05-07 14:26 39.34388 -74.33798 23658 ft 546 kts 35°
2026-05-07 14:26 39.37301 -74.30579 23201 ft 543 kts 35°
2026-05-07 14:26 39.40159 -74.27420 22725 ft 539 kts 35°
2026-05-07 14:27 39.42995 -74.24283 22259 ft 534 kts 35°
2026-05-07 14:27 39.45812 -74.21165 21799 ft 529 kts 35°
2026-05-07 14:27 39.48594 -74.18076 21339 ft 525 kts 35°
2026-05-07 14:27 39.51331 -74.14969 21020 ft 522 kts 39°
2026-05-07 14:28 39.53762 -74.11541 20951 ft 523 kts 44°
2026-05-07 14:28 39.56167 -74.07994 20942 ft 523 kts 45°
2026-05-07 14:28 39.58512 -74.04394 20941 ft 523 kts 46°
2026-05-07 14:28 39.60833 -74.00754 20939 ft 524 kts 47°
2026-05-07 14:29 39.63140 -73.97101 20940 ft 524 kts 47°
2026-05-07 14:29 39.65446 -73.93441 20916 ft 524 kts 47°
2026-05-07 14:29 39.67752 -73.89785 20624 ft 522 kts 47°
2026-05-07 14:29 39.70050 -73.86147 20125 ft 520 kts 47°
2026-05-07 14:30 39.72340 -73.82524 19668 ft 516 kts 47°
2026-05-07 14:30 39.74611 -73.78935 19225 ft 512 kts 47°
2026-05-07 14:30 39.76861 -73.75376 18785 ft 508 kts 47°
2026-05-07 14:30 39.79094 -73.71844 18346 ft 503 kts 47°
2026-05-07 14:31 39.81306 -73.68340 17872 ft 499 kts 46°
2026-05-07 14:31 39.83496 -73.64869 17375 ft 493 kts 47°
2026-05-07 14:31 39.85658 -73.61435 16885 ft 487 kts 46°
2026-05-07 14:31 39.87798 -73.58033 16410 ft 481 kts 46°
2026-05-07 14:32 39.89934 -73.54804 15926 ft 472 kts 40°
2026-05-07 14:32 39.92279 -73.51780 15463 ft 464 kts 39°
2026-05-07 14:32 39.94584 -73.48936 15011 ft 458 kts 37°
2026-05-07 14:32 39.96918 -73.46151 14558 ft 452 kts 36°
2026-05-07 14:33 39.99240 -73.43425 14113 ft 446 kts 36°
2026-05-07 14:33 40.01530 -73.40746 13672 ft 440 kts 36°
2026-05-07 14:33 40.03805 -73.38080 13158 ft 435 kts 37°
2026-05-07 14:33 40.06045 -73.35445 12679 ft 430 kts 37°
2026-05-07 14:34 40.08236 -73.32854 12190 ft 421 kts 37°
2026-05-07 14:34 40.10377 -73.30311 11712 ft 412 kts 37°
2026-05-07 14:34 40.12480 -73.27809 11250 ft 404 kts 37°
2026-05-07 14:34 40.14516 -73.25383 10779 ft 397 kts 38°
2026-05-07 14:35 40.16539 -73.22971 10329 ft 391 kts 38°
2026-05-07 14:35 40.18519 -73.20605 9940 ft 376 kts 38°
2026-05-07 14:35 40.20387 -73.18363 9661 ft 354 kts 38°
2026-05-07 14:35 40.22155 -73.16237 9392 ft 339 kts 37°
2026-05-07 14:36 40.23889 -73.14161 9034 ft 335 kts 37°
2026-05-07 14:36 40.25601 -73.12117 8647 ft 330 kts 37°
2026-05-07 14:36 40.27290 -73.10103 8267 ft 326 kts 37°
2026-05-07 14:36 40.28960 -73.08108 7896 ft 322 kts 37°
2026-05-07 14:37 40.30602 -73.06142 7638 ft 318 kts 37°
2026-05-07 14:37 40.33824 -73.02282 7156 ft 314 kts 37°
2026-05-07 14:37 40.35431 -73.00354 6931 ft 312 kts 37°
2026-05-07 14:38 40.37029 -72.98435 6580 ft 310 kts 37°
2026-05-07 14:38 40.38609 -72.96535 6222 ft 306 kts 37°
2026-05-07 14:38 40.40166 -72.94661 5831 ft 302 kts 37°
2026-05-07 14:38 40.41756 -72.92914 5448 ft 292 kts 26°
2026-05-07 14:39 40.43585 -72.91926 5045 ft 280 kts 10°
2026-05-07 14:39 40.45456 -72.91338 4698 ft 274 kts
2026-05-07 14:39 40.47301 -72.90844 4351 ft 267 kts
2026-05-07 14:39 40.49104 -72.90389 4060 ft 259 kts
2026-05-07 14:40 40.50858 -72.89957 4002 ft 255 kts
2026-05-07 14:40 40.52537 -72.89819 3997 ft 251 kts 352°
2026-05-07 14:40 40.54286 -72.90137 4001 ft 251 kts 347°
2026-05-07 14:40 40.55973 -72.90532 3994 ft 245 kts 347°
2026-05-07 14:41 40.57608 -72.90920 4001 ft 236 kts 347°
2026-05-07 14:41 40.59236 -72.91308 3976 ft 239 kts 347°
2026-05-07 14:41 40.60867 -72.91715 3661 ft 238 kts 345°
2026-05-07 14:41 40.62466 -72.92331 3223 ft 242 kts 339°
2026-05-07 14:42 40.64011 -72.93224 2803 ft 243 kts 333°
2026-05-07 14:42 40.65481 -72.94290 2490 ft 238 kts 330°
2026-05-07 14:42 40.66856 -72.95426 2306 ft 228 kts 327°
2026-05-07 14:42 40.68103 -72.96592 2294 ft 210 kts 325°
2026-05-07 14:43 40.69225 -72.97696 2243 ft 193 kts 324°
2026-05-07 14:43 40.70256 -72.98730 2115 ft 178 kts 323°
2026-05-07 14:43 40.71171 -72.99708 1926 ft 163 kts 323°
2026-05-07 14:43 40.71993 -73.00592 1813 ft 144 kts 323°
2026-05-07 14:44 40.72742 -73.01346 1655 ft 129 kts 325°
2026-05-07 14:44 40.73448 -73.02033 1435 ft 126 kts 323°
2026-05-07 14:44 40.74115 -73.02813 1304 ft 126 kts 319°
2026-05-07 14:44 40.74762 -73.03611 1248 ft 127 kts 318°
2026-05-07 14:45 40.75396 -73.04427 1192 ft 127 kts 318°
2026-05-07 14:45 40.76026 -73.05242 1060 ft 126 kts 317°
2026-05-07 14:45 40.76625 -73.06018 847 ft 124 kts 317°
2026-05-07 14:45 40.77237 -73.06813 697 ft 124 kts 317°
2026-05-07 14:46 40.77849 -73.07613 518 ft 123 kts 317°
2026-05-07 14:46 40.78452 -73.08409 325 ft 123 kts 316°
2026-05-07 14:46 40.79057 -73.09207 175 ft 123 kts 314°
2026-05-07 14:46 40.79647 -73.09970 102 ft 108 kts 315°
2026-05-07 14:47 40.80021 -73.10464 99 ft 54 kts 315°
2026-05-07 14:47 40.80148 -73.10642 97 ft 16 kts 294°
2026-05-07 14:47 40.80113 -73.10719 98 ft 9 kts 184°
2026-05-07 14:47 40.80045 -73.10719 98 ft 14 kts 180°
2026-05-07 14:48 40.79918 -73.10721 98 ft 23 kts 180°
2026-05-07 14:48 40.79738 -73.10721 99 ft 28 kts 180°
2026-05-07 14:48 40.79531 -73.10722 98 ft 30 kts 180°
2026-05-07 14:48 40.79344 -73.10720 101 ft 23 kts 181°
2026-05-07 14:49 40.79203 -73.10720 101 ft 20 kts 180°
2026-05-07 14:49 40.79121 -73.10698 99 ft 11 kts 131°
2026-05-07 14:49 40.79113 -73.10603 98 ft 12 kts 90°
2026-05-07 14:49 40.79112 -73.10475 99 ft 15 kts 90°
2026-05-07 14:50 40.79112 -73.10340 99 ft 15 kts 89°
2026-05-07 14:50 40.79113 -73.10203 98 ft 15 kts 89°
2026-05-07 14:50 40.79112 -73.10064 100 ft 15 kts 90°
2026-05-07 14:50 40.79112 -73.09922 98 ft 16 kts 90°
2026-05-07 14:51 40.79113 -73.09781 98 ft 14 kts 89°
2026-05-07 14:51 40.79088 -73.09729 99 ft 5 kts 172°
2026-05-07 14:51 40.79058 -73.09729 98 ft 3 kts 181°
2026-05-07 14:51 40.79045 -73.09729 100 ft 0 kts 180°